Regional Weather Roundup
Issued by NWS State College, PA

Home | Current Version | Previous Version | Graphics & Text | Print | Product List | Glossary On
Versions: 1 2 3 4 5 6 7 8 9 10 11 12 13 14 15 16 17 18 19 20 21 22 23 24 25 26 27 28 29 30 31 32 33 34 35 36 37 38 39 40 41 42 43 44 45 46 47 48 49 50
000
ASUS41 KCTP 290110
RWRCTP

REGIONAL WEATHER ROUNDUP
NATIONAL WEATHER SERVICE STATE COLLEGE PA
900 PM EDT SAT MAY 28 2016

Note: "fair" indicates few or no clouds below 12,000 feet with no
significant weather and/or obstructions to visibility.

* = STATION THAT DOES NOT REPORT PRECIPITATION /E.G. RAIN...SNOW...ETC/
    THUNDER OR FOG.

PAZ002>004-007>009-013>016-020>023-029>032-290200-
WESTERN PENNSYLVANIA

CITY           SKY/WX    TMP DP  RH WIND       PRES   REMARKS
ERIE           CLOUDY    78  68  71 SE9       30.06S
MEADVILLE      MOCLDY    77  66  68 CALM      30.11R
FRANKLIN*      PTCLDY    68  61  77 E6        30.16R
NEW CASTLE     FAIR      75  65  70 CALM      30.10S
BEAVER COUNTY  NOT AVBL
BUTLER*        CLOUDY    81  63  54 SE3       30.14R
PITTSBURGH INT CLOUDY    82  64  54 W6        30.10R
PITTSBURGH     MOCLDY    79  63  57 S5        30.10S
INDIANA*       MOCLDY    77  68  73 CALM      30.15F
LATROBE        MOCLDY    73  68  83 CALM      30.12R THUNDER
WASHINGTON CO* PTCLDY    73  66  78 CALM      30.12S
$$

PAZ004>006-010>012-017>019-024>028-033>037-041-042-045-046-049>053-290200-
CENTRAL PENNSYLVANIA

CITY           SKY/WX    TMP DP  RH WIND       PRES   REMARKS
BRADFORD       LGT RAIN  68  64  87 N3        30.18R
DUBOIS         CLOUDY    77  64  64 SE3       30.14R
CLEARFIELD     CLOUDY    75  65  70 N6        30.14R
JOHNSTOWN      PTCLDY    74  61  63 SE3       30.17R
ALTOONA        CLOUDY    78  64  61 S5        30.15R
STATE COLLEGE  CLEAR     79  66  65 SW3       30.12S
WILLIAMSPORT   PTCLDY    78  69  73 CALM      30.08R
SELINSGROVE    CLEAR     78  69  73 CALM      30.09R
FT INDIANTOWN  CLEAR     78  69  73 VRB1      30.11R
CAPITAL CITY   CLEAR     83  67  58 S9        30.10R
HARRISBURG     PTCLDY    82  68  62 S7        30.10R
YORK           CLOUDY    79  66  64 VRB5      30.12R
$$

PAZ038>040-043-044-047-048-054-055-060>062-067>071-290200-
EASTERN PENNSYLVANIA

CITY           SKY/WX    TMP DP  RH WIND       PRES   REMARKS
SCRANTON       CLEAR     81  67  62 VRB3      30.12R
MOUNT POCONO   CLEAR     68  66  93 CALM      30.19R
ALLENTOWN      CLEAR     84  65  52 S8        30.11R
QUAKERTOWN*    CLEAR     81  63  54 CALM      30.14R
READING        CLEAR     81  64  56 S5        30.11R
LANCASTER      CLEAR     78  65  63 S9        30.12R
COATESVILLE    CLEAR     77  64  65 CALM      30.16R
POTTSTOWN      CLEAR     78  64  61 CALM      30.14R
BLUE BELL      CLEAR     79  64  61 S5        30.13R
DOYLESTOWN     CLEAR     80  64  58 S5        30.12R
WILLOW GROVE   NOT AVBL
NORTH PHILA    CLEAR     82  63  52 SW6       30.14R
PHILADELPHIA   PTCLDY    79  60  52 S13       30.13R
$$




USA.gov is the U.S. government's official web portal to all federal, state and local government web resources and services.